カタログに戻る

TIANQI 21

運用中通信LEO
NORAD 57792·PAYLOAD·🇨🇳 China

打ち上げ Sep 5, 2023 から Yellow Sea Launch Area

Loading…

次のパス (今後24時間)

TLE

最新Source: Space-Track

元期: Sep 14, 2026, 14:08 UTC

1 57792U 23135A   26257.58957007 -.00000074  00000-0  37393-4 0  9998
2 57792  49.9711 136.1390 0012868 208.8186 151.2017 14.23161659157361

AllMySatでTIANQI 21をリアルタイム追跡

Download on the App Store